Location: Newark
(44.9333°N, 0.5667°E)
Time: 14:57:35
(UTC+00:00)

Oscar 11 - Pass Details

Date: 01 March 2020
Orbit: 612 x 626 km, 97.6° (Epoch: 09 April)

Event Time Altitude Azimuth Distance (km) Brightness Sun altitude
Rises 05:34:05 0° 34° (NNE) 2,903 11.0 -11.6°
Reaches altitude 10° 05:37:43 10° 66° (ENE) 1,986 10.8 -10.9°
Maximum altitude 05:39:21 12° 88° (E) 1,856 11.0 -10.6°
Drops below altitude 10° 05:41:00 10° 111° (ESE) 1,977 10.9 -10.4°
Sets 05:44:34 0° 143° (SE) 2,871 11.1 -9.7°
